Location: Campbell River
(50.0170°N, 125.2500°W)
Time: 15:03:30
(UTC-07:00)

Daily predictions for brighter satellites

Satellite Brightness Start Highest point End
(mag) Time Altitude Azimuth Time Altitude Azimuth Time Altitude Azimuth
Cosmos 1184 Rocket 4.1 21:52:51 10° SSE 21:55:34 24° E 21:58:20 10° NE
Cosmos 1461 3.8 21:51:09 10° SW 21:55:45 60° NW 22:00:11 10° NE
Cosmos 2074 Rocket 4.4 21:54:43 10° SSW 22:01:00 72° WNW 22:07:17 10° N
Cosmos 676 Rocket 4.1 21:59:03 10° NNW 22:04:16 77° WSW 22:09:28 10° SSE
Okean 2 Rocket 3.9 22:01:11 10° SSE 22:05:09 33° E 22:09:07 10° NNE
Cosmos 1674 Rocket 4.4 22:01:43 10° NNW 22:06:05 52° W 22:10:24 10° S
CZ-4 SHROUD 3.1 22:05:24 10° SSE 22:08:30 89° ENE 22:11:37 10° NNW
Cosmos 1174 4.0 22:06:29 10° NW 22:09:48 45° WSW 22:12:42 10° SSE
Cosmos 1954 Rocket 4.1 22:05:10 10° NNW 22:10:24 86° WSW 22:15:38 10° SSE
Nadezhda 3 Rocket 4.1 22:04:59 10° N 22:11:22 87° W 22:17:45 10° S
SL-27 R/B 4.4 22:08:21 10° NW 22:11:33 28° WSW 22:14:42 10° SSW
COS B Rocket 3.4 22:07:30 10° N 22:11:49 88° W 22:15:44 10° S
Cosmos 2056 Rocket 3.7 22:06:50 10° SSW 22:11:59 76° WNW 22:17:09 10° NNE
Sich 1 Rocket 3.7 22:07:26 10° S 22:12:02 88° W 22:16:39 10° N
MetOp-B 4.3 22:10:41 10° SSE 22:16:03 81° WSW 22:21:27 10° NNW
BREEZE-M TANK 4.1 22:00:12 10° WSW 22:18:29 62° S 22:22:40 10° E
COSMOS 2487 2.6 22:16:57 10° NNW 22:20:36 78° WSW 22:24:01 11° SSE
PSLV R/B 3.6 22:17:50 10° S 22:20:44 56° W 22:23:41 10° NNW
Cosmos 1741 Rocket 4.2 22:15:37 10° NNW 22:20:51 62° ENE 22:25:32 13° SE
Coronas F rocket 4.3 22:21:05 10° WSW 22:23:00 18° WNW 22:24:56 10° NNW
Okean 3 3.5 22:19:11 10° NNW 22:23:31 83° W 22:27:46 10° S
Cosmos 1782 Rocket 3.7 22:19:50 10° S 22:24:13 61° E 22:28:40 10° NNE
ATLAS 5 CENTAUR R/B 4.1 22:21:50 10° WNW 22:26:33 24° WSW 22:31:31 10° SSW
ARGOS 3.2 22:24:15 10° SSE 22:29:36 84° ENE 22:35:00 10° NNW
Landsat 7 4.1 22:27:13 13° SE 22:31:20 55° ENE 22:36:00 10° N
ISS -1.8 22:30:14 10° S 22:32:10 17° SE 22:32:10 17° SE
Cosmos 1238 Rocket 3.1 22:31:53 10° NNW 22:34:52 48° W 22:38:12 10° S
Cosmos 1975 Rocket 3.2 22:30:55 10° NNW 22:35:16 75° W 22:39:35 10° S
Cosmos 1825 2.3 22:32:41 10° SSW 22:36:30 81° W 22:40:21 10° N
Cosmos 2341 Rocket 4.0 22:30:25 10° S 22:36:44 88° ESE 22:43:03 10° N
USA 229 DEB 3.9 22:30:17 10° NW 22:37:23 74° NE 22:43:40 14° SE
USA 229 3.9 22:30:22 10° NW 22:37:29 73° NE 22:43:46 14° SE
APEX 4.4 22:38:24 14° SSE 22:41:30 33° ESE 22:46:07 10° NE
Cosmos 1862 3.8 22:37:53 10° SSW 22:41:55 63° WNW 22:46:00 10° N
NOSS 2-2 (D) 4.3 22:37:39 10° WSW 22:41:57 62° NW 22:47:14 10° NE
CARTOSAT-1 4.0 22:38:55 16° SE 22:42:06 49° ENE 22:46:17 10° N
YAOGAN 6 3.6 22:38:47 10° S 22:42:08 42° W 22:45:30 10° NNW
DNEPR-1 R/B 4.1 22:36:34 10° NW 22:42:18 69° SW 22:46:00 17° SSE
SPOT 5 4.2 22:37:47 10° SSW 22:42:46 42° W 22:47:53 10° NNW
Meteor 2-13 Rocket 4.4 22:37:24 10° S 22:43:32 75° E 22:49:43 10° NNE
Cosmos 1833 Rocket 3.0 22:38:00 10° NNW 22:43:35 59° ENE 22:47:59 16° SE
Cosmos 1408 2.9 22:40:15 10° SSW 22:43:54 66° WNW 22:47:33 10° N
Timation 2 Rocket 4.0 22:38:42 10° NNW 22:44:44 75° WSW 22:49:44 15° SSE
Cosmos 2278 Rocket 2.2 22:39:55 10° SSW 22:45:32 68° ESE 22:51:12 10° NNE
Terra 2.1 22:43:29 17° SE 22:47:05 55° ENE 22:51:45 10° N
Cosmos 1536 Rocket 3.9 22:43:37 10° N 22:48:01 52° ENE 22:51:05 19° SSE
Cosmos 1812 3.7 22:45:14 10° N 22:48:46 33° ENE 22:50:55 19° SE
Cosmos 1844 3.9 22:43:32 10° SSW 22:49:19 82° WNW 22:55:10 10° NNE
Cosmos 1242 Rocket 2.9 22:45:44 10° NNW 22:49:20 61° W 22:52:23 14° S
Spot 4 4.4 22:47:39 17° SE 22:51:07 48° ENE 22:55:48 10° N
Cosmos 1844 Rocket 3.3 22:48:01 10° SW 22:53:37 61° WNW 22:59:14 10° NNE
ASTEX 1 4.4 22:51:09 10° NNE 22:55:31 30° E 22:58:10 19° SE
SL-8 Rocket 4.0 22:51:11 10° S 22:57:27 78° E 23:03:43 10° NNE
USA 245 4.4 22:54:54 11° SSW 22:57:51 37° W 23:01:39 10° NNW
Cosmos 1420 Rocket 4.0 22:53:21 10° SSW 22:58:34 69° ESE 23:03:46 10° NNE
H-2A R/B 2.1 22:55:56 17° SSE 23:00:10 83° ENE 23:05:30 10° NNW
Cosmos 2082 Rocket 2.2 22:55:05 10° NNW 23:00:51 89° WSW 23:04:57 20° SSE
SL-8 R/B 3.6 22:56:28 10° WSW 23:01:14 66° SSE 23:06:01 10° E
CZ-4C R/B 3.4 23:00:51 20° S 23:03:31 79° WSW 23:07:40 10° NNW
BREEZE-M DEB (TANK) 4.2 22:52:50 10° WNW 23:03:39 36° SW 23:06:23 18° S
Meteor 2-8 Rocket 4.5 22:59:05 10° N 23:05:16 77° ENE 23:09:53 19° SSE
Intercosmos 25 3.2 23:01:48 10° SSW 23:05:18 67° W 23:08:28 10° N
Cosmos 2084 3.0 23:01:46 10° SW 23:05:35 73° SE 23:09:26 10° NE
Cosmos 614 Rocket 4.2 23:03:34 10° NNW 23:08:37 62° WSW 23:12:15 19° S
Gbstr 26 Del rocket 3.1 23:05:19 10° WNW 23:10:35 87° NNE 23:13:58 16° ESE
Cosmos 2151 Rocket 3.6 23:07:19 18° S 23:10:37 69° E 23:15:09 10° NNE
SL-08 RB Rocket 4.5 23:07:24 13° S 23:11:18 48° W 23:15:50 10° NNW
Cosmos 1452 Rocket 4.3 23:10:04 10° SW 23:15:13 53° WNW 23:20:24 10° NNE
ATLAS 2AS CENTAUR R/B 4.4 23:08:35 10° NW 23:16:05 37° NNE 23:23:26 10° E
Cosmos 2297 3.7 23:12:45 10° SSW 23:18:22 65° ESE 23:24:05 10° NNE
SAR-Lupe-2 3.5 23:19:53 31° SSE 23:21:29 76° ENE 23:25:05 10° NNW
CZ-4B R/B 4.2 23:21:39 10° N 23:26:31 51° WNW 23:31:14 10° SW
NOSS 3-1 (C) 4.2 23:19:44 10° NW 23:26:57 66° NE 23:33:31 17° ESE
Cosmos 864 Rocket 4.4 23:23:45 15° S 23:29:01 90° W 23:35:15 10° N
ALOS 2 4.4 23:26:47 14° E 23:29:09 21° ENE 23:32:23 10° NNE
Spot 2 4.3 23:25:51 10° NNE 23:30:12 51° E 23:32:00 30° SSE
CZ-4 R/B 4.4 23:26:59 10° N 23:31:37 57° WNW 23:36:09 10° SSW
Cosmos 1025 Rocket 4.1 23:29:49 10° N 23:33:51 34° ENE 23:35:40 24° ESE
Okean 1-7 Rocket 3.7 23:32:02 10° N 23:36:34 67° ENE 23:38:35 31° SSE
Cosmos 2366 rocket 4.1 23:31:06 13° SSW 23:36:51 77° W 23:43:15 10° N
USA 234 3.3 23:32:13 10° ENE 23:38:36 53° SE 23:44:57 10° SW
Okean 1 Rocket 3.4 23:37:09 31° SSE 23:38:57 51° E 23:43:19 10° NNE
Cosmos 1300 Rocket 3.7 23:37:48 31° SSE 23:39:44 59° E 23:44:08 10° NNE
Okean 1 3.3 23:36:15 10° NNW 23:40:19 82° W 23:42:05 33° S
AVUM R/B 3.7 23:41:15 10° NW 23:44:43 55° WSW 23:45:39 40° S
DMSP B5D2-2 4.1 23:41:54 10° NNE 23:47:09 81° WNW 23:51:04 18° SSW
IGS 5A 4.3 23:45:33 23° SSW 23:47:46 43° W 23:51:46 10° NNW
Cosmos 2369 Rocket 3.6 23:54:35 20° ESE 23:55:33 21° E 23:59:38 10° NE
